• Em Portugal
  • Lista de países
  • Para 7 dias
  • Temperatura da água
  • Mapas de satélite
  • Mapa do tempo
  • Widgets de tempo
  • user-avatar
    Iniciar Sessão

    Previsão horária em Chern-Palchikovo

    Hoje, 22 Julho, Domingo

    Tempo Temperatura Precipitação Vento Pressão Humidade
    00:00 +19°C° 0 mm 2 m/s 736 mmHg 95%
    01:00 +19°C° 0 mm 2 m/s 736 mmHg 96%
    02:00 +18°C° 0 mm 2 m/s 736 mmHg 97%
    03:00 +18°C° 0 mm 2 m/s 736 mmHg 97%
    04:00 +18°C° 0 mm 3 m/s 736 mmHg 97%
    05:00 +19°C° 0 mm 3 m/s 737 mmHg 98%
    06:00 +20°C° 0 mm 3 m/s 737 mmHg 95%
    07:00 +21°C° 0 mm 3 m/s 737 mmHg 93%
    08:00 +21°C° 0 mm 4 m/s 737 mmHg 90%
    09:00 +22°C° 0,3 mm 4 m/s 737 mmHg 88%
    10:00 +23°C° 0,3 mm 5 m/s 737 mmHg 85%
    11:00 +23°C° 0,3 mm 5 m/s 737 mmHg 82%
    12:00 +23°C° 0,5 mm 5 m/s 737 mmHg 83%
    13:00 +23°C° 0,5 mm 5 m/s 736 mmHg 84%
    14:00 +23°C° 0,5 mm 5 m/s 736 mmHg 85%
    15:00 +23°C° 0,2 mm 5 m/s 736 mmHg 84%
    16:00 +23°C° 0,2 mm 5 m/s 736 mmHg 84%
    17:00 +23°C° 0,2 mm 4 m/s 736 mmHg 84%
    18:00 +22°C° 0,2 mm 4 m/s 736 mmHg 87%
    19:00 +21°C° 0,2 mm 4 m/s 737 mmHg 90%
    20:00 +20°C° 0,2 mm 4 m/s 737 mmHg 93%
    21:00 +20°C° 0,1 mm 4 m/s 737 mmHg 93%
    22:00 +19°C° 0,1 mm 4 m/s 737 mmHg 94%
    23:00 +19°C° 0,1 mm 5 m/s 737 mmHg 95%

    Amanhã, 23 Julho, Segunda-feira

    Tempo Temperatura Precipitação Vento Pressão Humidade
    00:00 +19°C° 0 mm 5 m/s 737 mmHg 95%
    01:00 +19°C° 0 mm 4 m/s 737 mmHg 94%
    02:00 +18°C° 0 mm 4 m/s 737 mmHg 94%
    03:00 +18°C° 0 mm 4 m/s 737 mmHg 94%
    04:00 +18°C° 0 mm 4 m/s 737 mmHg 94%
    05:00 +18°C° 0 mm 4 m/s 737 mmHg 94%
    06:00 +18°C° 0,1 mm 4 m/s 737 mmHg 94%
    07:00 +18°C° 0,1 mm 4 m/s 737 mmHg 94%
    08:00 +18°C° 0,1 mm 4 m/s 737 mmHg 93%
    09:00 +19°C° 0 mm 5 m/s 737 mmHg 92%
    10:00 +19°C° 0 mm 5 m/s 738 mmHg 90%
    11:00 +19°C° 0 mm 5 m/s 738 mmHg 89%
    12:00 +20°C° 0 mm 5 m/s 738 mmHg 88%
    13:00 +20°C° 0 mm 5 m/s 738 mmHg 87%
    14:00 +20°C° 0 mm 5 m/s 737 mmHg 86%
    15:00 +20°C° 0 mm 5 m/s 737 mmHg 87%
    16:00 +20°C° 0 mm 5 m/s 737 mmHg 88%
    17:00 +20°C° 0 mm 5 m/s 737 mmHg 89%
    18:00 +19°C° 0 mm 4 m/s 738 mmHg 90%
    19:00 +19°C° 0 mm 4 m/s 738 mmHg 91%
    20:00 +19°C° 0 mm 4 m/s 738 mmHg 92%
    21:00 +19°C° 0,1 mm 4 m/s 738 mmHg 93%
    22:00 +19°C° 0,1 mm 4 m/s 738 mmHg 95%
    23:00 +18°C° 0,1 mm 4 m/s 738 mmHg 96%

    Depois de amanhã, 24 Julho, Terça-feira

    Tempo Temperatura Precipitação Vento Pressão Humidade
    00:00 +18°C° 0 mm 4 m/s 738 mmHg 96%
    01:00 +18°C° 0 mm 3 m/s 738 mmHg 97%
    02:00 +18°C° 0 mm 3 m/s 738 mmHg 97%
    03:00 +18°C° 0,2 mm 3 m/s 738 mmHg 97%
    04:00 +19°C° 0,2 mm 3 m/s 738 mmHg 97%
    05:00 +19°C° 0,2 mm 3 m/s 738 mmHg 97%
    06:00 +19°C° 0,4 mm 3 m/s 738 mmHg 95%
    07:00 +20°C° 0,4 mm 3 m/s 738 mmHg 94%
    08:00 +21°C° 0,4 mm 3 m/s 738 mmHg 92%
    09:00 +22°C° 0,7 mm 3 m/s 739 mmHg 87%
    10:00 +25°C° 0,7 mm 3 m/s 739 mmHg 83%
    11:00 +26°C° 0,7 mm 3 m/s 739 mmHg 78%
    12:00 +26°C° 0,8 mm 3 m/s 739 mmHg 76%
    13:00 +27°C° 0,8 mm 3 m/s 739 mmHg 73%
    14:00 +28°C° 0,8 mm 3 m/s 739 mmHg 71%
    15:00 +27°C° 0,5 mm 3 m/s 739 mmHg 74%
    16:00 +27°C° 0,5 mm 3 m/s 740 mmHg 78%
    17:00 +27°C° 0,5 mm 2 m/s 740 mmHg 81%
    18:00 +25°C° 0,3 mm 3 m/s 740 mmHg 85%
    19:00 +24°C° 0,3 mm 3 m/s 740 mmHg 88%
    20:00 +21°C° 0,3 mm 4 m/s 740 mmHg 91%
    21:00 +21°C° 1 mm 3 m/s 740 mmHg 93%
    22:00 +20°C° 1 mm 3 m/s 740 mmHg 94%
    23:00 +20°C° 1 mm 2 m/s 741 mmHg 96%

    25 Julho, Quarta-feira

    Tempo Temperatura Precipitação Vento Pressão Humidade
    00:00 +19°C° 1,4 mm 3 m/s 740 mmHg 96%
    01:00 +19°C° 1,4 mm 3 m/s 740 mmHg 96%
    02:00 +19°C° 1,4 mm 4 m/s 740 mmHg 96%
    03:00 +19°C° 0,8 mm 4 m/s 740 mmHg 96%
    04:00 +18°C° 0,8 mm 4 m/s 741 mmHg 96%
    05:00 +18°C° 0,8 mm 4 m/s 741 mmHg 96%
    06:00 +18°C° 0,6 mm 4 m/s 741 mmHg 95%
    07:00 +19°C° 0,6 mm 4 m/s 741 mmHg 95%
    08:00 +19°C° 0,6 mm 4 m/s 741 mmHg 94%
    09:00 +20°C° 0,1 mm 4 m/s 741 mmHg 91%
    10:00 +21°C° 0,1 mm 4 m/s 742 mmHg 89%
    11:00 +22°C° 0,1 mm 4 m/s 742 mmHg 86%
    12:00 +23°C° 0,6 mm 4 m/s 742 mmHg 83%
    13:00 +25°C° 0,6 mm 4 m/s 742 mmHg 81%
    14:00 +26°C° 0,6 mm 4 m/s 742 mmHg 78%
    15:00 +26°C° 0,6 mm 4 m/s 742 mmHg 80%
    16:00 +26°C° 0,6 mm 4 m/s 742 mmHg 82%
    17:00 +25°C° 0,6 mm 4 m/s 742 mmHg 84%
    18:00 +23°C° 0,2 mm 4 m/s 743 mmHg 86%
    19:00 +22°C° 0,2 mm 4 m/s 743 mmHg 89%
    20:00 +21°C° 0,2 mm 3 m/s 743 mmHg 92%
    21:00 +20°C° 0 mm 3 m/s 743 mmHg 92%
    22:00 +20°C° 0 mm 3 m/s 743 mmHg 92%
    23:00 +19°C° 0 mm 3 m/s 743 mmHg 92%

    26 Julho, Quinta-feira

    Tempo Temperatura Precipitação Vento Pressão Humidade
    00:00 +19°C° 0 mm 3 m/s 744 mmHg 92%
    01:00 +18°C° 0 mm 3 m/s 744 mmHg 91%
    02:00 +18°C° 0 mm 3 m/s 744 mmHg 91%
    03:00 +17°C° 0 mm 3 m/s 744 mmHg 90%
    04:00 +17°C° 0 mm 3 m/s 744 mmHg 90%
    05:00 +17°C° 0 mm 3 m/s 744 mmHg 89%
    06:00 +19°C° 0 mm 3 m/s 745 mmHg 85%
    07:00 +20°C° 0 mm 3 m/s 745 mmHg 80%
    08:00 +22°C° 0 mm 4 m/s 745 mmHg 76%
    09:00 +23°C° 0 mm 4 m/s 745 mmHg 72%
    10:00 +26°C° 0 mm 4 m/s 745 mmHg 68%
    11:00 +27°C° 0 mm 4 m/s 745 mmHg 64%
    12:00 +28°C° 0 mm 4 m/s 745 mmHg 64%
    13:00 +28°C° 0 mm 5 m/s 745 mmHg 64%
    14:00 +29°C° 0 mm 5 m/s 745 mmHg 63%
    15:00 +29°C° 0 mm 5 m/s 745 mmHg 67%
    16:00 +29°C° 0 mm 4 m/s 745 mmHg 70%
    17:00 +28°C° 0 mm 4 m/s 745 mmHg 74%
    18:00 +27°C° 0 mm 3 m/s 745 mmHg 79%
    19:00 +25°C° 0 mm 3 m/s 745 mmHg 84%
    20:00 +24°C° 0 mm 3 m/s 745 mmHg 89%
    21:00 +22°C° 0 mm 3 m/s 746 mmHg 88%
    22:00 +22°C° 0 mm 3 m/s 746 mmHg 88%
    23:00 +22°C° 0 mm 4 m/s 746 mmHg 87%

    27 Julho, Sexta-feira

    Tempo Temperatura Precipitação Vento Pressão Humidade
    00:00 +21°C° 0 mm 4 m/s 746 mmHg 87%
    01:00 +21°C° 0 mm 4 m/s 746 mmHg 86%
    02:00 +21°C° 0 mm 4 m/s 747 mmHg 86%
    03:00 +21°C° 0,1 mm 4 m/s 747 mmHg 86%
    04:00 +21°C° 0,1 mm 4 m/s 747 mmHg 86%
    05:00 +21°C° 0,1 mm 4 m/s 747 mmHg 86%
    06:00 +22°C° 0 mm 4 m/s 748 mmHg 82%
    07:00 +23°C° 0 mm 4 m/s 748 mmHg 79%
    08:00 +25°C° 0 mm 5 m/s 748 mmHg 75%
    09:00 +27°C° 0 mm 5 m/s 748 mmHg 71%
    10:00 +28°C° 0 mm 5 m/s 749 mmHg 67%
    11:00 +29°C° 0 mm 5 m/s 749 mmHg 63%
    12:00 +30°C° 0 mm 5 m/s 749 mmHg 61%
    13:00 +30°C° 0 mm 6 m/s 749 mmHg 60%
    14:00 +30°C° 0 mm 6 m/s 749 mmHg 59%
    15:00 +30°C° 0 mm 5 m/s 749 mmHg 62%
    16:00 +29°C° 0 mm 4 m/s 749 mmHg 66%
    17:00 +29°C° 0 mm 4 m/s 749 mmHg 70%
    18:00 +27°C° 0 mm 4 m/s 749 mmHg 75%
    19:00 +26°C° 0 mm 3 m/s 749 mmHg 80%
    20:00 +24°C° 0 mm 3 m/s 750 mmHg 85%
    21:00 +24°C° 0 mm 3 m/s 750 mmHg 85%
    22:00 +22°C° 0 mm 3 m/s 750 mmHg 86%
    23:00 +21°C° 0 mm 3 m/s 750 mmHg 86%
    Mostrar mais